When you browse on this site, cookies collect data to enhance your experience and personalize the content and advertising you see.
Visit our Privacy Policy to learn more. By continuing to use the site, you agree to this use of cookies and data.
  • En España
  • Lista de países
  • Para 7 días
  • Temperatura del agua
  • El tiempo en el mapa
  • Informadores
  • user-avatar
    Iniciar sesión

    Tiempo cada hora Zaafrana

    Hoy, 23 Octubre, Miércoles

    Tiempo Temperatura Precipitaciones Viento Presión Humedad
    00:00 +21°C° 0.1 mm 3 mps 743 mmHg 65%
    01:00 +21°C° 0.1 mm 2 mps 742 mmHg 64%
    02:00 +21°C° 0.1 mm 2 mps 742 mmHg 64%
    03:00 +20°C° 0 mm 2 mps 742 mmHg 66%
    04:00 +20°C° 0 mm 2 mps 742 mmHg 67%
    05:00 +20°C° 0 mm 1 mps 743 mmHg 69%
    06:00 +21°C° 0 mm 2 mps 743 mmHg 63%
    07:00 +24°C° 0 mm 2 mps 743 mmHg 57%
    08:00 +25°C° 0 mm 2 mps 744 mmHg 51%
    09:00 +27°C° 0 mm 2 mps 744 mmHg 47%
    10:00 +28°C° 0 mm 3 mps 744 mmHg 43%
    11:00 +29°C° 0 mm 3 mps 744 mmHg 39%
    12:00 +29°C° 0 mm 3 mps 743 mmHg 37%
    13:00 +30°C° 0 mm 4 mps 742 mmHg 35%
    14:00 +30°C° 0 mm 5 mps 742 mmHg 33%
    15:00 +29°C° 0 mm 4 mps 742 mmHg 36%
    16:00 +28°C° 0 mm 4 mps 742 mmHg 39%
    17:00 +27°C° 0 mm 3 mps 743 mmHg 43%
    18:00 +26°C° 0 mm 3 mps 743 mmHg 50%
    19:00 +23°C° 0 mm 4 mps 743 mmHg 57%
    20:00 +21°C° 0 mm 4 mps 744 mmHg 64%
    21:00 +21°C° 0 mm 3 mps 744 mmHg 66%
    22:00 +20°C° 0 mm 2 mps 744 mmHg 68%
    23:00 +20°C° 0 mm 1 mps 744 mmHg 69%

    Mañana, 24 Octubre, Jueves

    Tiempo Temperatura Precipitaciones Viento Presión Humedad
    00:00 +20°C° 0 mm 1 mps 744 mmHg 70%
    01:00 +20°C° 0 mm 1 mps 744 mmHg 70%
    02:00 +19°C° 0 mm 1 mps 743 mmHg 71%
    03:00 +19°C° 0 mm 1 mps 743 mmHg 70%
    04:00 +19°C° 0 mm 1 mps 743 mmHg 69%
    05:00 +18°C° 0 mm 2 mps 743 mmHg 68%
    06:00 +20°C° 0 mm 2 mps 744 mmHg 61%
    07:00 +21°C° 0 mm 2 mps 744 mmHg 54%
    08:00 +24°C° 0 mm 1 mps 745 mmHg 47%
    09:00 +25°C° 0 mm 2 mps 745 mmHg 43%
    10:00 +26°C° 0 mm 2 mps 744 mmHg 39%
    11:00 +28°C° 0 mm 3 mps 744 mmHg 35%
    12:00 +28°C° 0 mm 3 mps 744 mmHg 34%
    13:00 +28°C° 0 mm 3 mps 744 mmHg 33%
    14:00 +29°C° 0 mm 4 mps 743 mmHg 32%
    15:00 +28°C° 0 mm 3 mps 743 mmHg 36%
    16:00 +26°C° 0 mm 2 mps 743 mmHg 40%
    17:00 +25°C° 0 mm 2 mps 743 mmHg 43%
    18:00 +24°C° 0 mm 1 mps 743 mmHg 46%
    19:00 +23°C° 0 mm 1 mps 744 mmHg 50%
    20:00 +22°C° 0 mm 1 mps 744 mmHg 53%
    21:00 +21°C° 0 mm 1 mps 744 mmHg 55%
    22:00 +20°C° 0 mm 2 mps 744 mmHg 57%
    23:00 +20°C° 0 mm 2 mps 744 mmHg 59%

    Pasado mañana, 25 Octubre, Viernes

    Tiempo Temperatura Precipitaciones Viento Presión Humedad
    00:00 +20°C° 0 mm 2 mps 744 mmHg 62%
    01:00 +19°C° 0 mm 2 mps 744 mmHg 64%
    02:00 +19°C° 0 mm 2 mps 744 mmHg 67%
    03:00 +19°C° 0 mm 2 mps 744 mmHg 68%
    04:00 +19°C° 0 mm 2 mps 744 mmHg 69%
    05:00 +18°C° 0 mm 2 mps 744 mmHg 70%
    06:00 +20°C° 0 mm 3 mps 744 mmHg 65%
    07:00 +21°C° 0 mm 3 mps 745 mmHg 59%
    08:00 +22°C° 0 mm 3 mps 745 mmHg 54%
    09:00 +25°C° 0 mm 3 mps 745 mmHg 49%
    10:00 +26°C° 0 mm 4 mps 745 mmHg 44%
    11:00 +28°C° 0 mm 4 mps 745 mmHg 39%
    12:00 +28°C° 0 mm 4 mps 744 mmHg 37%
    13:00 +29°C° 0 mm 4 mps 744 mmHg 36%
    14:00 +29°C° 0 mm 5 mps 743 mmHg 34%
    15:00 +28°C° 0 mm 4 mps 744 mmHg 37%
    16:00 +27°C° 0 mm 3 mps 744 mmHg 40%
    17:00 +26°C° 0 mm 3 mps 744 mmHg 44%
    18:00 +25°C° 0 mm 3 mps 744 mmHg 47%
    19:00 +24°C° 0 mm 3 mps 744 mmHg 50%
    20:00 +23°C° 0 mm 4 mps 745 mmHg 53%
    21:00 +22°C° 0 mm 4 mps 745 mmHg 57%
    22:00 +21°C° 0 mm 3 mps 744 mmHg 61%
    23:00 +20°C° 0 mm 3 mps 744 mmHg 65%

    26 Octubre, Sábado

    Tiempo Temperatura Precipitaciones Viento Presión Humedad
    00:00 +20°C° 0 mm 3 mps 744 mmHg 69%
    01:00 +19°C° 0 mm 3 mps 744 mmHg 73%
    02:00 +19°C° 0 mm 3 mps 744 mmHg 76%
    03:00 +19°C° 0 mm 3 mps 744 mmHg 78%
    04:00 +19°C° 0 mm 3 mps 744 mmHg 81%
    05:00 +19°C° 0 mm 3 mps 745 mmHg 83%
    06:00 +20°C° 0 mm 3 mps 745 mmHg 78%
    07:00 +21°C° 0 mm 4 mps 745 mmHg 74%
    08:00 +22°C° 0 mm 4 mps 746 mmHg 70%
    09:00 +23°C° 0 mm 4 mps 746 mmHg 62%
    10:00 +26°C° 0 mm 4 mps 746 mmHg 54%
    11:00 +28°C° 0 mm 4 mps 746 mmHg 46%
    12:00 +28°C° 0 mm 5 mps 745 mmHg 44%
    13:00 +29°C° 0 mm 6 mps 745 mmHg 42%
    14:00 +29°C° 0 mm 6 mps 744 mmHg 39%
    15:00 +28°C° 0 mm 6 mps 744 mmHg 44%
    16:00 +27°C° 0 mm 6 mps 744 mmHg 49%
    17:00 +26°C° 0 mm 6 mps 744 mmHg 54%
    18:00 +23°C° 0 mm 5 mps 745 mmHg 59%
    19:00 +22°C° 0 mm 4 mps 745 mmHg 64%
    20:00 +21°C° 0 mm 3 mps 745 mmHg 69%
    21:00 +21°C° 0 mm 3 mps 745 mmHg 73%
    22:00 +20°C° 0 mm 3 mps 745 mmHg 77%
    23:00 +20°C° 0 mm 3 mps 745 mmHg 81%

    27 Octubre, Domingo

    Tiempo Temperatura Precipitaciones Viento Presión Humedad
    00:00 +19°C° 0 mm 3 mps 745 mmHg 83%
    01:00 +19°C° 0 mm 3 mps 745 mmHg 85%
    02:00 +19°C° 0 mm 2 mps 745 mmHg 87%
    03:00 +18°C° 0 mm 2 mps 745 mmHg 88%
    04:00 +18°C° 0 mm 2 mps 745 mmHg 89%
    05:00 +18°C° 0 mm 2 mps 745 mmHg 90%
    06:00 +20°C° 0 mm 3 mps 745 mmHg 84%
    07:00 +21°C° 0 mm 3 mps 746 mmHg 79%
    08:00 +22°C° 0 mm 4 mps 746 mmHg 73%
    09:00 +25°C° 0 mm 4 mps 746 mmHg 65%
    10:00 +26°C° 0 mm 5 mps 746 mmHg 56%
    11:00 +28°C° 0 mm 5 mps 746 mmHg 47%
    12:00 +28°C° 0 mm 6 mps 745 mmHg 43%
    13:00 +29°C° 0 mm 6 mps 744 mmHg 39%
    14:00 +30°C° 0 mm 6 mps 744 mmHg 35%
    15:00 +28°C° 0 mm 6 mps 744 mmHg 38%
    16:00 +27°C° 0 mm 5 mps 744 mmHg 41%
    17:00 +26°C° 0 mm 5 mps 744 mmHg 44%
    18:00 +25°C° 0 mm 4 mps 744 mmHg 48%
    19:00 +24°C° 0 mm 3 mps 744 mmHg 53%
    20:00 +21°C° 0 mm 3 mps 745 mmHg 58%
    21:00 +21°C° 0 mm 3 mps 745 mmHg 65%
    22:00 +20°C° 0 mm 3 mps 745 mmHg 72%
    23:00 +20°C° 0 mm 3 mps 745 mmHg 80%

    28 Octubre, Lunes

    Tiempo Temperatura Precipitaciones Viento Presión Humedad
    00:00 +19°C° 0 mm 3 mps 745 mmHg 80%
    01:00 +18°C° 0 mm 2 mps 744 mmHg 81%
    02:00 +18°C° 0 mm 2 mps 744 mmHg 81%
    03:00 +17°C° 0 mm 2 mps 744 mmHg 80%
    04:00 +17°C° 0 mm 2 mps 744 mmHg 78%
    05:00 +17°C° 0 mm 2 mps 744 mmHg 77%
    06:00 +18°C° 0 mm 2 mps 744 mmHg 68%
    07:00 +20°C° 0 mm 3 mps 745 mmHg 60%
    08:00 +22°C° 0 mm 3 mps 745 mmHg 51%
    09:00 +25°C° 0 mm 3 mps 745 mmHg 44%
    10:00 +26°C° 0 mm 4 mps 745 mmHg 37%
    11:00 +28°C° 0 mm 4 mps 745 mmHg 30%
    12:00 +28°C° 0 mm 4 mps 745 mmHg 28%
    13:00 +29°C° 0 mm 5 mps 744 mmHg 26%
    14:00 +30°C° 0 mm 5 mps 744 mmHg 24%
    15:00 +28°C° 0 mm 5 mps 744 mmHg 29%
    16:00 +26°C° 0 mm 5 mps 744 mmHg 34%
    17:00 +23°C° 0 mm 4 mps 744 mmHg 40%
    18:00 +22°C° 0 mm 4 mps 744 mmHg 46%
    19:00 +21°C° 0 mm 3 mps 744 mmHg 52%
    20:00 +19°C° 0 mm 2 mps 745 mmHg 58%
    21:00 +19°C° 0 mm 3 mps 745 mmHg 61%
    22:00 +19°C° 0 mm 3 mps 745 mmHg 64%
    23:00 +19°C° 0 mm 3 mps 745 mmHg 68%

    29 Octubre, Martes

    Tiempo Temperatura Precipitaciones Viento Presión Humedad
    00:00 +18°C° 0 mm 3 mps 745 mmHg 71%
    01:00 +18°C° 0 mm 2 mps 745 mmHg 75%
    02:00 +17°C° 0 mm 2 mps 744 mmHg 79%
    03:00 +17°C° 0 mm 2 mps 744 mmHg 78%
    04:00 +17°C° 0 mm 2 mps 744 mmHg 78%
    05:00 +16°C° 0 mm 2 mps 744 mmHg 78%
    06:00 +18°C° 0 mm 2 mps 745 mmHg 68%
    07:00 +20°C° 0 mm 3 mps 745 mmHg 59%
    08:00 +22°C° 0 mm 3 mps 746 mmHg 49%
    09:00 +25°C° 0 mm 3 mps 745 mmHg 41%
    10:00 +27°C° 0 mm 4 mps 745 mmHg 33%
    11:00 +28°C° 0 mm 4 mps 745 mmHg 25%
    12:00 +29°C° 0 mm 4 mps 745 mmHg 23%
    13:00 +30°C° 0 mm 4 mps 744 mmHg 21%
    14:00 +30°C° 0 mm 4 mps 744 mmHg 19%
    15:00 +28°C° 0 mm 4 mps 744 mmHg 23%
    16:00 +27°C° 0 mm 4 mps 744 mmHg 27%
    17:00 +25°C° 0 mm 4 mps 744 mmHg 31%
    18:00 +23°C° 0 mm 4 mps 744 mmHg 37%
    19:00 +21°C° 0 mm 4 mps 745 mmHg 44%
    20:00 +20°C° 0 mm 4 mps 745 mmHg 51%
    21:00 +20°C° 0 mm 3 mps 745 mmHg 57%
    22:00 +19°C° 0 mm 3 mps 745 mmHg 64%
    23:00 +19°C° 0 mm 3 mps 745 mmHg 70%
    Mostrar más